C/2024 T3 ( PanSTARRS )

Japanese version
Home page
Updated on November 27, 2024

---------------------------------------------------------------------

* Profile

Discovery Date October 10, 2024
Magnitude 20.0 mag
Discoverer Pan-STARRS 2 telescope (Haleakala)

* Pictures

* Orbital Elements

Epoch 2024 Oct. 17.0 TT = JDT 2460600.5
T 2025 Mar. 15.45541 TT                                 Rudenko
q   3.7157514            (2000.0)            P               Q
z  +0.0120181      Peri.  336.93596     +0.46581974     -0.42575322
 +/-0.0002419      Node    74.82354     +0.88397281     +0.18421842
e   0.9553438      Incl.   53.49015     +0.04005040     +0.88588812
From 26 observations 2024 Sept. 8-Nov. 4, mean residual 0".2.

* Magnitudes Graph

        m1 = 11.0 + 5 log d + 10.0 log r

---------------------------------------------------------------------

The orbital elements are published on M.P.E.C. 2024-V117.
The magnitudes graphs are made with Comet for Windows.

---------------------------------------------------------------------

Copyright(C) Seiichi Yoshida (comet@aerith.net). All rights reserved.